EDT,Max TemperatureF,Mean TemperatureF,Min TemperatureF,Max Dew PointF,MeanDew PointF,Min DewpointF,Max Humidity, Mean Humidity, Min Humidity, Max Sea Level PressureIn, Mean Sea Level PressureIn, Min Sea Level PressureIn, Max VisibilityMiles, Mean VisibilityMiles, Min VisibilityMiles, Max Wind SpeedMPH, Mean Wind SpeedMPH, Max Gust SpeedMPH,PrecipitationIn, CloudCover, Events, WindDirDegrees
2012-9-1,73,62,51,64,53,45,100,69,36,30.12,30.01,29.81,10,10,7,13,4,18,0.00,0,,358
2012-9-2,66,56,46,61,54,46,100,93,68,30.19,30.14,30.12,10,9,0,8,1,,0.14,3,,190
2012-9-3,68,58,48,61,56,46,100,93,78,30.24,30.19,30.15,10,7,0,15,3,18,0.00,4,,204
2012-9-4,69,62,55,63,60,54,100,92,73,30.16,30.08,29.96,10,8,0,16,6,21,0.05,3,,189
2012-9-5,69,64,59,70,63,57,100,96,88,29.94,29.76,29.64,10,7,0,20,7,30,2.64,8,,26
2012-9-6,71,64,57,63,59,55,100,84,64,29.89,29.86,29.82,10,10,0,13,3,18,0.00,5,,334
2012-9-7,75,66,57,68,62,55,100,94,73,29.94,29.89,29.85,10,5,0,9,1,,0.01,5,,166
2012-9-8,73,66,59,72,66,59,100,95,83,29.93,29.83,29.65,10,6,0,22,7,31,0.01,8,,165
2012-9-9,73,66,59,72,60,55,100,87,73,29.85,29.78,29.64,10,10,5,24,8,36,0.02,4,,321
2012-9-10,66,58,51,54,50,48,94,74,56,29.92,29.84,29.80,10,10,10,14,5,23,0.00,3,,332
2012-9-11,69,60,50,54,47,43,100,68,38,30.23,30.09,29.92,10,10,10,13,6,20,0.00,0,,304
2012-9-12,71,58,44,57,50,45,100,77,43,30.33,30.30,30.24,10,10,5,14,3,16,0.00,0,,199
2012-9-13,73,62,51,63,59,52,100,89,64,30.33,30.29,30.25,10,9,0,16,4,22,0.00,1,,203
2012-9-14,73,64,55,64,62,55,100,94,73,30.25,30.19,30.09,10,7,0,14,5,20,0.00,5,,193
2012-9-15,71,61,51,64,57,45,100,83,53,30.08,29.96,29.88,10,10,6,15,9,22,0.00,5,,225
2012-9-16,64,54,44,46,42,36,100,67,34,30.01,29.96,29.91,10,10,10,15,4,21,0.00,0,,281
2012-9-17,64,52,41,52,45,41,100,76,45,30.09,30.05,30.00,10,10,9,17,4,20,0.00,0,,210
2012-9-18,69,58,46,63,56,45,100,88,60,30.08,30.02,29.85,10,10,9,25,7,36,0.00,3,,167
2012-9-19,69,58,48,66,55,39,100,79,40,30.22,29.94,29.74,10,9,2,31,18,44,0.44,5,,282
2012-9-20,62,52,41,50,44,37,100,79,48,30.29,30.23,30.18,10,10,8,8,2,,0.00,0,,26
2012-9-21,57,52,46,55,52,46,100,94,82,30.19,30.15,30.09,10,10,4,6,3,,0.15,6,,17
2012-9-22,69,62,55,66,60,54,100,98,83,30.08,29.93,29.86,10,4,0,13,5,16,0.00,8,,109
2012-9-23,69,58,46,64,54,45,100,79,43,30.04,29.89,29.80,10,8,1,10,6,,0.00,4,,251
2012-9-24,62,52,42,46,44,37,100,80,42,30.12,30.07,30.03,10,10,4,6,1,,0.00,3,,244
2012-9-25,64,53,42,57,50,41,100,83,56,30.13,30.09,30.07,10,9,1,22,6,28,0.00,0,,203
2012-9-26,64,60,57,63,59,55,100,93,83,30.12,30.05,29.96,10,10,4,21,10,28,0.00,6,,200
2012-9-27,62,52,42,61,47,39,100,73,42,30.25,30.10,29.95,10,9,3,14,5,22,0.00,3,,331
2012-9-28,57,48,39,52,46,39,100,86,62,30.28,30.23,30.15,10,10,7,12,4,,0.19,3,,100
2012-9-29,57,52,48,57,53,46,100,98,93,30.14,29.95,29.86,10,7,2,13,7,21,0.84,8,,29
2012-9-30,62,58,55,63,57,54,100,99,94,29.93,29.76,29.58,10,8,0,14,5,22,1.38,8,,4